Regional Weather Roundup
Issued by NWS

Home | Current Version | Previous Version | Text Only | Print | Product List | Glossary On
Versions: 1 2 3 4 5 6 7 8 9 10 11 12 13 14 15 16 17 18 19 20 21 22 23 24 25 26 27 28 29 30 31 32 33 34 35 36 37 38 39 40 41 42 43 44 45 46 47 48 49 50
000
ASUS43 KLMK 211910
RWRKY
KENTUCKY REGIONAL WEATHER ROUNDUP
NATIONAL WEATHER SERVICE LOUISVILLE KY
200 PM EST SAT JAN 21 2017

NOTE "FAIR" INDICATES FEW OR NO CLOUDS BELOW 12,000 FEET
WITH NO SIGNIFICANT WEATHER AND/OR OBSTRUCTIONS TO VISIBILITY.

KYZ001>023-026-027-061>063-070>075-212000-
WESTERN AND SOUTH CENTRAL KENTUCKY

CITY           SKY/WX    TMP DP  RH WIND       PRES   REMARKS
PADUCAH        SUNNY     70  48  45 S8G21     29.58F
HENDERSON      SUNNY     70  54  56 SW17      29.58F
OWENSBORO      MOSUNNY   67  55  65 SW12      29.61F
HOPKINSVILLE   SUNNY     71  49  46 S9        29.62F
BOWLING GREEN  CLOUDY    68  55  63 S9        29.66F
GLASGOW        CLOUDY    65  51  60 SW6       29.66F
$$

KYZ024-025-028>034-038-045-046-053-212000-
NORTH CENTRAL KENTUCKY

CITY           SKY/WX    TMP DP  RH WIND       PRES   REMARKS
LOUISVILLE/SDF CLOUDY    67  53  61 SW12      29.63F
LOUISVILLE/LOU CLOUDY    66  54  65 S7        29.64F
FORT KNOX      CLOUDY    63  55  75 S14       29.63F
$$

KYZ035>037-039>044-047>052-055>060-089>105-212000-
NORTHEAST KENTUCKY

CITY           SKY/WX    TMP DP  RH WIND       PRES   REMARKS
LEXINGTON      CLOUDY    63  53  70 S13       29.67F
COVINGTON      CLOUDY    62  54  74 S8        29.64F
FRANKFORT      CLOUDY    63  53  70 S7        29.65F
$$

KYZ054-064>069-076>088-106>120-212000-
SOUTHEAST KENTUCKY

CITY           SKY/WX    TMP DP  RH WIND       PRES   REMARKS
JACKSON        LGT RAIN  59  53  80 S5        29.71F
LONDON         CLOUDY    61  50  67 SE8       29.69F
SOMERSET       CLOUDY    61  46  59 S6        29.68F
MIDDLESBORO    LGT RAIN  57  54  90 N7        29.69F
MONTICELLO     CLOUDY    62  51  67 NE6       29.69F
$$





USA.gov is the U.S. government's official web portal to all federal, state and local government web resources and services.